Regional Weather Roundup
Issued by NWS Glasgow, MT

Home | Current Version | Previous Version | Text Only | Print | Product List | Glossary On
Versions: 1 2 3 4 5 6 7 8 9 10 11 12 13 14 15 16 17 18 19 20 21 22 23 24 25 26 27 28 29 30 31 32 33 34 35 36 37 38 39 40 41 42 43 44 45 46 47 48 49 50
000
ASUS45 KGGW 290615
RWRGGW
HOURLY WEATHER ROUNDUP FOR NORTHEAST MONTANA
NATIONAL WEATHER SERVICE GLASGOW MONTANA
1100 PM MST WED JAN 28 2015

NOTE: "FAIR" INDICATES FEW OR NO CLOUDS BELOW 12,000 FEET WITH NO
SIGNIFICANT WEATHER AND/OR OBSTRUCTIONS TO VISISBILITY.

NORTHEAST MONTANA


CITY           SKY/WX    TMP DP  RH WIND       PRES   REMARKS
GLASGOW        CLEAR     28  25  88 NW9       30.38R
6HR MIN TEMP:  28; 6HR MAX TEMP:  35;

PLENTYWOOD       N/A     28  25  88 N17G25      N/A
WOLF POINT     PTCLDY    30  24  78 W8        30.39R
JORDAN           N/A     25  23  92 W7        30.39R
WINNETT          N/A     29  26  89 S2          N/A
SIDNEY         CLOUDY    34  23  64 NW15G21   30.37R
GLENDIVE       CLOUDY    34  27  75 NW10      30.37R
MALTA            N/A     28  28 100 SW6         N/A
SCOBEY           N/A     28  21  75 NW14      30.30R

FORT PECK REPORTS


CITY           SKY/WX    TMP DP  RH WIND       PRES   REMARKS
FORT PECK        N/A     31  29  92 W14         N/A
THE PINES        N/A     32  29  88 NW8         N/A

SOUTHEAST MONTANA


CITY           SKY/WX    TMP DP  RH WIND       PRES   REMARKS
BILLINGS       MOCLDY    38  28  67 CALM      30.41R
MILES CITY     CLEAR     30  26  85 NW5       30.40R
BAKER          CLOUDY    32  28  85 NW14      30.33R
LIVINGSTON     PTCLDY    33  25  72 SE3       30.39R

CENTRAL MONTANA


CITY           SKY/WX    TMP DP  RH WIND       PRES   REMARKS
HAVRE          CLEAR     26  23  88 SW5       30.40R
LEWISTOWN      CLEAR     27  24  89 SE8       30.38S
GREAT FALLS    CLEAR     29  27  92 CALM      30.37S
CUT BANK       CLEAR     25  24  96 S6        30.34S
HELENA         CLEAR     31  22  69 CALM      30.39R
BUTTE          CLEAR     25  20  81 E3        30.40R
BOZEMAN        CLEAR     27  22  81 S6        30.40R

WESTERN MONTANA


CITY           SKY/WX    TMP DP  RH WIND       PRES   REMARKS
MISSOULA       CLEAR     30  25  81 CALM      30.43R
KALISPELL      NOT AVBL

NORTH DAKOTA


CITY           SKY/WX    TMP DP  RH WIND       PRES   REMARKS
WILLISTON      CLOUDY    31  26  82 N15G21    30.34R
DICKINSON      CLOUDY    33  27  78 NW16G24   30.25R
MINOT          CLOUDY    28  22  78 NW22G29   30.25R
BISMARCK       CLOUDY    33  27  78 NW17G26   30.24R

SOUTHERN SASKATCHEWAN


CITY           SKY/WX    TMP DP  RH WIND       PRES   REMARKS
REGINA         CLOUDY    21  18  86 NW15      30.35R
ESTEVAN        FLURRIES  23  19  86 NW17G26   30.32R
SWIFT CURRENT  CLEAR     19  18  93 NW9       30.36R



USA.gov is the U.S. government's official web portal to all federal, state and local government web resources and services.